Location: Belfast
(54.5830°N, 5.9330°W)
Time: 02:05:41
(UTC+00:00)

ISS - Pass Details

Date: 27 January 2021
Orbit: 417 x 422 km, 51.6° (Epoch: 25 February)

Event Time Altitude Azimuth Distance (km) Brightness Sun altitude
Rises 18:29:17 0° 255° (WSW) 2,374 2.1 -13.8°
Reaches altitude 10° 18:31:24 10° 250° (WSW) 1,511 0.5 -14.1°
Maximum altitude 18:34:42 50° 174° (S) 550 -3.2 -14.5°
Enters shadow 18:36:15 27° 112° (ESE) 862 -2.7 -14.7°
